Flight Information

DEPARTURE
OLYMPIA, WA
Elevation:
207
Runways:
17/35 - 5500x150 - ASPH-G
8/26 - 4157x150 - ASPH-G
ATIS:
135.725
Ground:
121.6
Tower:
OLYMPIA TOWER 124.4
DESTINATION
,
Elevation:
TPA:
1000 (est.)


6705.2 NM65° True-20° Var44° HDG

Flight Plan:
(click to file on line)

1. Type
2. Aircraft Identification
3. Aircraft Type / Special Equipment
4. True Airspeed
kts
5. Departure Airport
(ICAO code)
6. Arriving Airport
(ICAO code)
7. Cruising Altitude
ft
8. Alternate Airport
(ICAO code)
9. Route of Flight
10. Remarks


00:00:00 Departure ATIS: Destination ATIS:

Clearance Limit:
Route:
Altitude: Expect in minutes
Frequency:
Transponder: (7500 Hijack / 7600 Lost Comms / 7700 Emergency)


KOLM 261354Z AUTO 00000KT 10SM CLR 15/12 A3007 RMK AO2 SLP182 T01500122
Time: 2022-06-26T13:54:00Z
1656254435
Winds: calm
Visibility: 10.0 sm
Clouds (AGL): CLR
Temperature: 15.0 C
Dew Point: 12.2 C
Pressure: 30.070866 in Hgbr


Notes:

Data extracted from FAA Digital Chart Supplement. Effective: 0901Z Thursday, 27 JAN 2022 to 0900z Thursday, 24 MAR 2022
Current ATIS data is provided courtisy of PilotEdge.